Location: New Frontier Mobile Home Park
(32.8448°N, 116.9675°W)
Time: 23:05:42
(UTC+00:00)

USA 215 - Pass Details

Date: 14 July 2020
Orbit: 1102 x 1106 km, 123.0° (Epoch: 31 July)

Event Time Altitude Azimuth Distance (km) Brightness Sun altitude
Rises 05:23:20 0° 45° (NE) 3,920 6.2 -24.8°
Reaches altitude 10° 05:25:52 10° 49° (NE) 2,960 5.5 -25.1°
Maximum altitude 05:32:19 62° 129° (SE) 1,222 3.1 -25.9°
Enters shadow 05:33:39 52° 177° (S) 1,341 3.3 -26.1°
